Simultaneous Nadir Overpasses (SNOs) Predictions

Prediction of SNOs between NOAA-19 and TERRA Satellite Orbit:

Table of predicted SNOs for the next 14.0 days since TLE Epoch: 11/9/2019
Index Date (NOAA-19) Time (NOAA-19) Lat,Lon (NOAA-19) SZA (NOAA-19 ) Date (TERRA) Time (TERRA) Lat,Lon (TERRA) SZA (TERRA ) Distance(km) Time Diff (sec)
1 11/10/2019 18:06:33 -79.27, 110.10 82.56 11/10/2019 18:07:37 -79.17, 114.25 82.27 87.01 64
2 11/10/2019 18:57:17 78.89, -79.55 97.37 11/10/2019 18:57:09 78.92, -79.61 97.39 3.60 8
3 11/13/2019 00:30:44 -78.91, 17.04 82.02 11/13/2019 00:30:53 -78.95, 17.09 81.98 4.09 9
4 11/13/2019 01:21:31 78.61,-173.46 97.93 11/13/2019 01:20:26 78.65,-176.96 97.62 76.88 65
5 11/15/2019 06:04:02 78.92, 113.71 98.57 11/15/2019 06:04:36 78.94, 113.63 98.59 2.59 34
6 11/15/2019 06:55:06 -78.91, -78.93 81.43 11/15/2019 06:54:04 -78.92, -78.87 81.44 1.66 62
7 11/17/2019 11:37:29 -78.96,-149.86 80.87 11/17/2019 11:38:20 -78.97,-149.67 80.83 4.04 51
8 11/17/2019 12:28:24 78.91, 17.80 99.13 11/17/2019 12:27:47 78.91, 17.65 99.10 3.36 37
9 11/19/2019 17:10:51 79.09, -54.10 99.69 11/19/2019 17:12:03 78.95, -53.17 99.67 24.65 72
10 11/19/2019 18:01:50 -78.93, 114.39 80.34 11/19/2019 18:01:31 -78.93, 114.35 80.36 0.96 19
11 11/21/2019 23:35:09 78.95,-148.98 100.16 11/21/2019 23:35:13 78.96,-148.94 100.17 1.28 4




NCC Satellite Simultaneous Nadir Overpasses (SNOs) Prediction Service
